LiveATC.Net - Listen to live air traffic control over the Internet!


ICAO: LFLP  IATA: NCY   Airport: Annecy-Meythet Airport
City: Annecy
Country: France   Continent: Europe
LFLP METAR Weather: LFLP 151830Z AUTO 07007KT CAVOK 22/16 Q1023 NOSIG
LFLP Flight Activity (FlightAware)
LFLP Webcam:  (Airport Webcams) 

LFLP Twr/LFLB App
Feed Status: DOWN
Last heard on: 2019-09-15 17:58:40 (0 days 1 hours 10 minutes ago)
LFLP Twr/LFLB App Audio Archives
FacilityFrequency
Annecy Tower118.200
Chambery Approach121.200
Chambery Info123.700
NOTE: Reception might be deteriorated due to terrain surrounding feed

NOTICE

Unauthorized use prohibited. See LiveATC.net Terms of Service


Airport/ARTCC Code
Frequency Search
(e.g., 124.400, 128.75)
Site-wide search
 


Browse LiveATC Feeds
Top 50 LiveATC Feeds
LiveATC Feed Map
Bad Weather Areas

LiveATC FAQ
Offer LiveATC feed
Contact LiveATC.net
Press Inquiries

LiveATC on iPhone
LiveATC on Android

Windows Phone
Windows 8/10

LiveATC Mobile
(Mobile browser)

ATC Audio Archives
Interesting Recordings

LiveATC Forums


Home Page
About LiveATC.net
Make a Donation
Terms of Use
Privacy Policy

Canadian Air Freqs

AIRMETs/SIGMETs

FAA Airport Status
Nat'l Airspace Status
Arrival Demand Charts


Server Software By:
Icecast.org
Liquidsoap